| time (UTC) | temp F | wind direction | speed MPH | gust MPH | rain 1hr in | rain 24hr in | rain mn in | humidity % | barometer mb |
| 20260831151241 | 88 | 180 | 4.0 | 7.0 | 0.00 | 0.00 | 0.00 | 65 | 1013.2 |
| 20260831150843 | 89 | 180 | 4.0 | 7.0 | 0.00 | 0.00 | 0.00 | 64 | 1013.1 |
| 20260831150442 | 89 | 158 | 5.0 | 7.0 | 0.00 | 0.00 | 0.00 | 64 | 1013.0 |
| 20260831150242 | 89 | 158 | 6.0 | 8.0 | 0.00 | 0.00 | 0.00 | 64 | 1013.2 |
| 20260831150052 | 89 | 225 | 4.0 | 6.0 | 0.00 | 0.00 | 0.00 | 64 | 1013.0 |
| 20260831145843 | 90 | 202 | 4.0 | 7.0 | 0.00 | 0.00 | 0.00 | 64 | 1013.0 |
| 20260831145641 | 90 | 202 | 4.0 | 7.0 | 0.00 | 0.00 | 0.00 | 63 | 1013.1 |
| 20260831145443 | 90 | 135 | 4.0 | 8.0 | 0.00 | 0.00 | 0.00 | 62 | 1013.1 |
| 20260831145242 | 91 | 135 | 4.0 | 8.0 | 0.00 | 0.00 | 0.00 | 61 | 1013.2 |
| 20260831145046 | 91 | 248 | 6.0 | 8.0 | 0.00 | 0.00 | 0.00 | 60 | 1013.0 |
| 20260831144841 | 91 | 135 | 4.0 | 6.0 | 0.00 | 0.00 | 0.00 | 59 | 1013.0 |
| 20260831144641 | 91 | 180 | 4.0 | 7.0 | 0.00 | 0.00 | 0.00 | 56 | 1013.1 |
| 20260831144242 | 91 | 202 | 2.0 | 4.0 | 0.00 | 0.00 | 0.00 | 55 | 1013.2 |
| 20260831144050 | 91 | 90 | 4.0 | 7.0 | 0.00 | 0.00 | 0.00 | 55 | 1013.2 |
| 20260831143842 | 92 | 180 | 5.0 | 7.0 | 0.00 | 0.00 | 0.00 | 55 | 1013.3 |
| 20260831143641 | 92 | 180 | 5.0 | 8.0 | 0.00 | 0.00 | 0.00 | 55 | 1013.5 |
| 20260831143442 | 92 | 158 | 4.0 | 7.0 | 0.00 | 0.00 | 0.00 | 54 | 1013.3 |
| 20260831143242 | 92 | 180 | 6.0 | 8.0 | 0.00 | 0.00 | 0.00 | 53 | 1013.2 |
| 20260831143049 | 93 | 180 | 4.0 | 7.0 | 0.00 | 0.00 | 0.00 | 53 | 1013.3 |
| 20260831142841 | 93 | 202 | 5.0 | 8.0 | 0.00 | 0.00 | 0.00 | 52 | 1013.2 |
| 20260831142642 | 94 | 158 | 4.0 | 6.0 | 0.00 | 0.00 | 0.00 | 51 | 1012.9 |
| 20260831142443 | 94 | 135 | 4.0 | 7.0 | 0.00 | 0.00 | 0.00 | 51 | 1012.9 |
| 20260831142243 | 94 | 112 | 5.0 | 8.0 | 0.00 | 0.00 | 0.00 | 51 | 1013.0 |
| 20260831142047 | 94 | 90 | 4.0 | 6.0 | 0.00 | 0.00 | 0.00 | 51 | 1012.8 |
| 20260831141841 | 94 | 112 | 5.0 | 8.0 | 0.00 | 0.00 | 0.00 | 53 | 1012.8 |
| 20260831141643 | 94 | 180 | 5.0 | 8.0 | 0.00 | 0.00 | 0.00 | 52 | 1012.7 |
| 20260831141048 | 94 | 112 | 5.0 | 9.0 | 0.00 | 0.00 | 0.00 | 52 | 1012.7 |
| 20260831140842 | 93 | 158 | 4.0 | 7.0 | 0.00 | 0.00 | 0.00 | 53 | 1012.7 |
| 20260831140442 | 94 | 135 | 4.0 | 8.0 | 0.00 | 0.00 | 0.00 | 52 | 1012.6 |
| 20260831140242 | 95 | 112 | 4.0 | 9.0 | 0.00 | 0.00 | 0.00 | 52 | 1012.8 |
| 20260831140051 | 95 | 180 | 3.0 | 6.0 | 0.00 | 0.00 | 0.00 | 51 | 1012.6 |
| 20260831135841 | 94 | 135 | 3.0 | 6.0 | 0.00 | 0.00 | 0.00 | 51 | 1012.7 |
| 20260831135642 | 94 | 158 | 3.0 | 4.0 | 0.00 | 0.00 | 0.00 | 51 | 1012.8 |
| 20260831135443 | 94 | 135 | 7.0 | 8.0 | 0.00 | 0.00 | 0.00 | 52 | 1012.6 |
| 20260831135242 | 94 | 112 | 4.0 | 7.0 | 0.00 | 0.00 | 0.00 | 52 | 1012.5 |
| 20260831135044 | 93 | 135 | 5.0 | 8.0 | 0.00 | 0.00 | 0.00 | 52 | 1012.7 |
| 20260831134842 | 94 | 158 | 5.0 | 9.0 | 0.00 | 0.00 | 0.00 | 50 | 1012.5 |
| 20260831134642 | 94 | 135 | 5.0 | 8.0 | 0.00 | 0.00 | 0.00 | 51 | 1012.4 |
| 20260831134443 | 94 | 90 | 4.0 | 9.0 | 0.00 | 0.00 | 0.00 | 50 | 1012.4 |
| 20260831134243 | 93 | 135 | 7.0 | 9.0 | 0.00 | 0.00 | 0.00 | 52 | 1012.5 |
| 20260831134049 | 93 | 180 | 6.0 | 11.0 | 0.00 | 0.00 | 0.00 | 52 | 1012.7 |
| 20260831133845 | 93 | 180 | 4.0 | 8.0 | 0.00 | 0.00 | 0.00 | 53 | 1012.5 |
| 20260831133642 | 93 | 112 | 5.0 | 8.0 | 0.00 | 0.00 | 0.00 | 53 | 1012.5 |
| 20260831133242 | 93 | 112 | 8.0 | 9.0 | 0.00 | 0.00 | 0.00 | 54 | 1012.5 |
| 20260831133049 | 93 | 90 | 5.0 | 9.0 | 0.00 | 0.00 | 0.00 | 53 | 1012.4 |
| 20260831132842 | 94 | 135 | 4.0 | 6.0 | 0.00 | 0.00 | 0.00 | 52 | 1012.6 |
| 20260831132443 | 94 | 135 | 4.0 | 6.0 | 0.00 | 0.00 | 0.00 | 51 | 1012.9 |
| 20260831132242 | 95 | 158 | 4.0 | 7.0 | 0.00 | 0.00 | 0.00 | 51 | 1012.9 |
| 20260831131841 | 93 | 180 | 3.0 | 6.0 | 0.00 | 0.00 | 0.00 | 52 | 1012.6 |
| 20260831131643 | 93 | 202 | 6.0 | 11.0 | 0.00 | 0.00 | 0.00 | 52 | 1012.7 |
| 20260831131443 | 92 | 158 | 4.0 | 9.0 | 0.00 | 0.00 | 0.00 | 53 | 1012.8 |
| 20260831131245 | 92 | 158 | 4.0 | 7.0 | 0.00 | 0.00 | 0.00 | 54 | 1013.0 |
| 20260831131048 | 93 | 90 | 7.0 | 11.0 | 0.00 | 0.00 | 0.00 | 53 | 1013.1 |
| 20260831130643 | 93 | 112 | 4.0 | 8.0 | 0.00 | 0.00 | 0.00 | 52 | 1012.9 |
| 20260831130443 | 93 | 112 | 5.0 | 11.0 | 0.00 | 0.00 | 0.00 | 54 | 1012.9 |
| 20260831130242 | 93 | 202 | 5.0 | 8.0 | 0.00 | 0.00 | 0.00 | 54 | 1012.9 |
| 20260831130051 | 93 | 135 | 6.0 | 8.0 | 0.00 | 0.00 | 0.00 | 54 | 1013.0 |
| 20260831125842 | 93 | 248 | 5.0 | 9.0 | 0.00 | 0.00 | 0.00 | 53 | 1013.1 |
| 20260831125242 | 92 | 90 | 4.0 | 7.0 | 0.00 | 0.00 | 0.00 | 53 | 1013.2 |
| 20260831125046 | 92 | 112 | 5.0 | 8.0 | 0.00 | 0.00 | 0.00 | 54 | 1013.2 |
| 20260831124842 | 93 | 180 | 6.0 | 8.0 | 0.00 | 0.00 | 0.00 | 55 | 1013.1 |
| 20260831124443 | 91 | 202 | 7.0 | 11.0 | 0.00 | 0.00 | 0.00 | 54 | 1013.2 |
| 20260831124244 | 91 | 180 | 8.0 | 9.0 | 0.00 | 0.00 | 0.00 | 55 | 1013.1 |
| 20260831124050 | 92 | 158 | 8.0 | 14.0 | 0.00 | 0.00 | 0.00 | 54 | 1013.3 |
| 20260831123842 | 92 | 202 | 5.0 | 8.0 | 0.00 | 0.00 | 0.00 | 53 | 1013.3 |
| 20260831123642 | 92 | 135 | 4.0 | 9.0 | 0.00 | 0.00 | 0.00 | 53 | 1013.1 |
| 20260831123444 | 91 | 202 | 8.0 | 13.0 | 0.00 | 0.00 | 0.00 | 54 | 1013.4 |
| 20260831123049 | 92 | 90 | 7.0 | 11.0 | 0.00 | 0.00 | 0.00 | 55 | 1013.2 |
| 20260831122442 | 91 | 158 | 5.0 | 7.0 | 0.00 | 0.00 | 0.00 | 55 | 1013.3 |
| 20260831122244 | 91 | 112 | 7.0 | 11.0 | 0.00 | 0.00 | 0.00 | 56 | 1013.3 |
| 20260831122046 | 92 | 112 | 8.0 | 13.0 | 0.00 | 0.00 | 0.00 | 55 | 1013.3 |
| 20260831121843 | 92 | 90 | 8.0 | 14.0 | 0.00 | 0.00 | 0.00 | 54 | 1013.3 |
| 20260831121443 | 92 | 112 | 5.0 | 9.0 | 0.00 | 0.00 | 0.00 | 53 | 1013.1 |
| 20260831121243 | 92 | 158 | 4.0 | 8.0 | 0.00 | 0.00 | 0.00 | 54 | 1013.3 |
| 20260831121048 | 93 | 112 | 6.0 | 9.0 | 0.00 | 0.00 | 0.00 | 53 | 1013.1 |
| 20260831120843 | 93 | 135 | 4.0 | 6.0 | 0.00 | 0.00 | 0.00 | 54 | 1013.3 |
| 20260831120642 | 92 | 180 | 5.0 | 9.0 | 0.00 | 0.00 | 0.00 | 53 | 1013.3 |
| 20260831120443 | 92 | 112 | 4.0 | 7.0 | 0.00 | 0.00 | 0.00 | 54 | 1013.3 |
| 20260831120243 | 92 | 112 | 7.0 | 11.0 | 0.00 | 0.00 | 0.00 | 52 | 1013.2 |
| 20260831120049 | 92 | 180 | 8.0 | 11.0 | 0.00 | 0.00 | 0.00 | 53 | 1013.2 |
| 20260831115842 | 92 | 158 | 7.0 | 11.0 | 0.00 | 0.00 | 0.00 | 54 | 1013.3 |
| 20260831115643 | 92 | 112 | 7.0 | 9.0 | 0.00 | 0.00 | 0.00 | 53 | 1013.4 |
| 20260831115443 | 93 | 135 | 5.0 | 9.0 | 0.00 | 0.00 | 0.00 | 52 | 1013.4 |
| 20260831115243 | 93 | 158 | 7.0 | 8.0 | 0.00 | 0.00 | 0.00 | 54 | 1013.5 |
| 20260831115045 | 93 | 135 | 6.0 | 8.0 | 0.00 | 0.00 | 0.00 | 52 | 1013.3 |
| 20260831114843 | 93 | 202 | 6.0 | 11.0 | 0.00 | 0.00 | 0.00 | 52 | 1013.4 |
| 20260831114645 | 93 | 202 | 4.0 | 7.0 | 0.00 | 0.00 | 0.00 | 51 | 1013.4 |
| 20260831114443 | 93 | 180 | 4.0 | 8.0 | 0.00 | 0.00 | 0.00 | 52 | 1013.4 |
| 20260831114242 | 93 | 135 | 4.0 | 7.0 | 0.00 | 0.00 | 0.00 | 51 | 1013.5 |
| 20260831114050 | 92 | 180 | 4.0 | 8.0 | 0.00 | 0.00 | 0.00 | 52 | 1013.5 |
| 20260831113642 | 93 | 112 | 6.0 | 9.0 | 0.00 | 0.00 | 0.00 | 51 | 1013.5 |
| 20260831113443 | 93 | 270 | 5.0 | 8.0 | 0.00 | 0.00 | 0.00 | 53 | 1013.4 |
| 20260831113244 | 94 | 112 | 6.0 | 9.0 | 0.00 | 0.00 | 0.00 | 52 | 1013.4 |
| 20260831113051 | 94 | 202 | 5.0 | 8.0 | 0.00 | 0.00 | 0.00 | 53 | 1013.3 |
| 20260831112843 | 94 | 90 | 6.0 | 11.0 | 0.00 | 0.00 | 0.00 | 52 | 1013.4 |
| 20260831112444 | 95 | 135 | 6.0 | 11.0 | 0.00 | 0.00 | 0.00 | 50 | 1013.4 |
| 20260831112242 | 95 | 158 | 5.0 | 11.0 | 0.00 | 0.00 | 0.00 | 52 | 1013.2 |
| 20260831112047 | 95 | 225 | 6.0 | 11.0 | 0.00 | 0.00 | 0.00 | 52 | 1013.3 |
| 20260831111642 | 94 | 158 | 5.0 | 7.0 | 0.00 | 0.00 | 0.00 | 51 | 1013.3 |
| 20260831111243 | 95 | 135 | 6.0 | 8.0 | 0.00 | 0.00 | 0.00 | 52 | 1013.2 |
| 20260831111051 | 95 | 90 | 4.0 | 8.0 | 0.00 | 0.00 | 0.00 | 51 | 1013.4 |
| 20260831110842 | 95 | 180 | 4.0 | 4.0 | 0.00 | 0.00 | 0.00 | 50 | 1013.3 |
| 20260831110642 | 95 | 135 | 4.0 | 7.0 | 0.00 | 0.00 | 0.00 | 50 | 1013.4 |
| 20260831110444 | 94 | 180 | 4.0 | 8.0 | 0.00 | 0.00 | 0.00 | 51 | 1013.4 |
| 20260831110242 | 95 | 180 | 8.0 | 9.0 | 0.00 | 0.00 | 0.00 | 51 | 1013.3 |
| 20260831110052 | 95 | 180 | 5.0 | 9.0 | 0.00 | 0.00 | 0.00 | 51 | 1013.2 |
| 20260831105843 | 95 | 202 | 6.0 | 9.0 | 0.00 | 0.00 | 0.00 | 51 | 1013.3 |
| 20260831105642 | 95 | 135 | 4.0 | 7.0 | 0.00 | 0.00 | 0.00 | 51 | 1013.4 |
| 20260831105442 | 96 | 135 | 4.0 | 9.0 | 0.00 | 0.00 | 0.00 | 50 | 1013.3 |
| 20260831105048 | 95 | 158 | 3.0 | 4.0 | 0.00 | 0.00 | 0.00 | 50 | 1013.4 |
| 20260831104643 | 95 | 158 | 4.0 | 7.0 | 0.00 | 0.00 | 0.00 | 50 | 1013.4 |
| 20260831104444 | 95 | 180 | 7.0 | 9.0 | 0.00 | 0.00 | 0.00 | 51 | 1013.4 |
| 20260831104242 | 94 | 180 | 8.0 | 11.0 | 0.00 | 0.00 | 0.00 | 52 | 1013.3 |
| 20260831104049 | 94 | 135 | 3.0 | 4.0 | 0.00 | 0.00 | 0.00 | 52 | 1013.4 |
| 20260831103842 | 94 | 158 | 5.0 | 8.0 | 0.00 | 0.00 | 0.00 | 51 | 1013.4 |
| 20260831103442 | 95 | 112 | 4.0 | 7.0 | 0.00 | 0.00 | 0.00 | 51 | 1013.4 |
| 20260831103242 | 96 | 135 | 4.0 | 7.0 | 0.00 | 0.00 | 0.00 | 50 | 1013.3 |
| 20260831103049 | 95 | 112 | 2.0 | 4.0 | 0.00 | 0.00 | 0.00 | 50 | 1013.6 |
| 20260831102842 | 94 | 112 | 2.0 | 4.0 | 0.00 | 0.00 | 0.00 | 51 | 1013.7 |
| 20260831102641 | 94 | 180 | 4.0 | 9.0 | 0.00 | 0.00 | 0.00 | 50 | 1013.7 |
| 20260831102442 | 94 | 180 | 4.0 | 6.0 | 0.00 | 0.00 | 0.00 | 52 | 1013.6 |
| 20260831102242 | 94 | 180 | 4.0 | 7.0 | 0.00 | 0.00 | 0.00 | 52 | 1013.7 |
| 20260831102047 | 94 | 158 | 5.0 | 6.0 | 0.00 | 0.00 | 0.00 | 53 | 1013.6 |
| 20260831101843 | 94 | 158 | 6.0 | 8.0 | 0.00 | 0.00 | 0.00 | 53 | 1013.8 |
| 20260831101641 | 94 | 202 | 5.0 | 8.0 | 0.00 | 0.00 | 0.00 | 52 | 1013.7 |
| 20260831101443 | 92 | 158 | 2.0 | 4.0 | 0.00 | 0.00 | 0.00 | 53 | 1013.6 |
| 20260831101242 | 92 | 158 | 5.0 | 7.0 | 0.00 | 0.00 | 0.00 | 54 | 1013.8 |
| 20260831101049 | 94 | 112 | 5.0 | 8.0 | 0.00 | 0.00 | 0.00 | 53 | 1013.7 |
| 20260831100842 | 94 | 158 | 4.0 | 7.0 | 0.00 | 0.00 | 0.00 | 51 | 1013.8 |
| 20260831100644 | 94 | 112 | 4.0 | 7.0 | 0.00 | 0.00 | 0.00 | 52 | 1013.8 |
| 20260831100443 | 94 | 112 | 4.0 | 7.0 | 0.00 | 0.00 | 0.00 | 53 | 1013.8 |
| 20260831100242 | 94 | 135 | 3.0 | 7.0 | 0.00 | 0.00 | 0.00 | 52 | 1013.9 |
| 20260831100052 | 95 | 180 | 4.0 | 8.0 | 0.00 | 0.00 | 0.00 | 51 | 1013.8 |
| 20260831095842 | 94 | 112 | 5.0 | 7.0 | 0.00 | 0.00 | 0.00 | 51 | 1013.7 |
| 20260831095643 | 94 | 158 | 4.0 | 7.0 | 0.00 | 0.00 | 0.00 | 52 | 1013.8 |
| 20260831095242 | 95 | 158 | 4.0 | 9.0 | 0.00 | 0.00 | 0.00 | 52 | 1013.6 |
| 20260831095047 | 94 | 158 | 4.0 | 7.0 | 0.00 | 0.00 | 0.00 | 52 | 1013.8 |
| 20260831094842 | 94 | 202 | 4.0 | 6.0 | 0.00 | 0.00 | 0.00 | 52 | 1013.8 |
| 20260831094442 | 93 | 158 | 2.0 | 4.0 | 0.00 | 0.00 | 0.00 | 53 | 1013.6 |
| 20260831094049 | 95 | 135 | 3.0 | 4.0 | 0.00 | 0.00 | 0.00 | 52 | 1013.9 |
| 20260831093641 | 95 | 225 | 2.0 | 4.0 | 0.00 | 0.00 | 0.00 | 47 | 1014.0 |
| 20260831093441 | 95 | 315 | 2.0 | 2.0 | 0.00 | 0.00 | 0.00 | 47 | 1013.8 |
| 20260831093242 | 95 | 22 | 3.0 | 4.0 | 0.00 | 0.00 | 0.00 | 47 | 1013.9 |
| 20260831093049 | 96 | 22 | 2.0 | 4.0 | 0.00 | 0.00 | 0.00 | 46 | 1013.9 |
| 20260831092841 | 96 | 292 | 2.0 | 4.0 | 0.00 | 0.00 | 0.00 | 45 | 1013.9 |
| 20260831092642 | 95 | 270 | 2.0 | 4.0 | 0.00 | 0.00 | 0.00 | 47 | 1014.1 |
| 20260831092442 | 95 | 315 | 2.0 | 4.0 | 0.00 | 0.00 | 0.00 | 47 | 1013.8 |
| 20260831092046 | 94 | 270 | 0.0 | 2.0 | 0.00 | 0.00 | 0.00 | 47 | 1013.9 |
| 20260831091843 | 94 | 270 | 4.0 | 6.0 | 0.00 | 0.00 | 0.00 | 48 | 1014.1 |
| 20260831091642 | 94 | 270 | 0.0 | 2.0 | 0.00 | 0.00 | 0.00 | 48 | 1014.0 |
| 20260831091444 | 94 | 270 | 3.0 | 4.0 | 0.00 | 0.00 | 0.00 | 48 | 1014.0 |
| 20260831091241 | 94 | 270 | 3.0 | 6.0 | 0.00 | 0.00 | 0.00 | 49 | 1013.9 |
| 20260831091049 | 95 | 270 | 4.0 | 6.0 | 0.00 | 0.00 | 0.00 | 48 | 1014.1 |
| 20260831090642 | 95 | 248 | 1.0 | 4.0 | 0.00 | 0.00 | 0.00 | 45 | 1013.8 |
| 20260831090443 | 94 | 248 | 1.0 | 2.0 | 0.00 | 0.00 | 0.00 | 47 | 1014.1 |
| 20260831090051 | 94 | 292 | 4.0 | 4.0 | 0.00 | 0.00 | 0.00 | 49 | 1014.1 |
| 20260831085843 | 94 | 292 | 4.0 | 7.0 | 0.00 | 0.00 | 0.00 | 49 | 1014.1 |
| 20260831085643 | 95 | 292 | 3.0 | 6.0 | 0.00 | 0.00 | 0.00 | 49 | 1014.3 |
| 20260831084841 | 94 | 315 | 2.0 | 4.0 | 0.00 | 0.00 | 0.00 | 48 | 1014.3 |
| 20260831084642 | 94 | 315 | 1.0 | 2.0 | 0.00 | 0.00 | 0.00 | 49 | 1014.1 |
| 20260831084242 | 93 | 292 | 3.0 | 4.0 | 0.00 | 0.00 | 0.00 | 49 | 1014.1 |
| 20260831083842 | 94 | 292 | 3.0 | 6.0 | 0.00 | 0.00 | 0.00 | 49 | 1014.1 |
| 20260831083643 | 94 | 270 | 1.0 | 2.0 | 0.00 | 0.00 | 0.00 | 48 | 1014.1 |
| 20260831083444 | 94 | 270 | 1.0 | 2.0 | 0.00 | 0.00 | 0.00 | 48 | 1014.0 |
| 20260831083242 | 94 | 68 | 2.0 | 4.0 | 0.00 | 0.00 | 0.00 | 49 | 1014.1 |
| 20260831083049 | 94 | 0 | 2.0 | 4.0 | 0.00 | 0.00 | 0.00 | 50 | 1014.0 |
| 20260831082842 | 93 | 292 | 1.0 | 2.0 | 0.00 | 0.00 | 0.00 | 48 | 1014.2 |
| 20260831082641 | 94 | 315 | 2.0 | 4.0 | 0.00 | 0.00 | 0.00 | 50 | 1014.1 |
| 20260831082443 | 94 | 315 | 3.0 | 4.0 | 0.00 | 0.00 | 0.00 | 50 | 1014.1 |
| 20260831082242 | 93 | 315 | 0.0 | 2.0 | 0.00 | 0.00 | 0.00 | 49 | 1014.2 |
| 20260831081842 | 92 | 248 | 2.0 | 2.0 | 0.00 | 0.00 | 0.00 | 51 | 1014.2 |
| 20260831081642 | 92 | 292 | 1.0 | 2.0 | 0.00 | 0.00 | 0.00 | 51 | 1014.0 |
| 20260831081442 | 92 | 0 | 4.0 | 6.0 | 0.00 | 0.00 | 0.00 | 51 | 1013.9 |
| 20260831081241 | 92 | 292 | 0.0 | 2.0 | 0.00 | 0.00 | 0.00 | 51 | 1014.2 |
| 20260831081049 | 93 | 315 | 2.0 | 4.0 | 0.00 | 0.00 | 0.00 | 52 | 1014.0 |
| 20260831080844 | 93 | 315 | 2.0 | 6.0 | 0.00 | 0.00 | 0.00 | 50 | 1014.1 |
| 20260831080642 | 93 | 45 | 3.0 | 4.0 | 0.00 | 0.00 | 0.00 | 51 | 1014.1 |
| 20260831080443 | 92 | 68 | 2.0 | 2.0 | 0.00 | 0.00 | 0.00 | 51 | 1014.2 |
| 20260831080243 | 91 | 112 | 1.0 | 2.0 | 0.00 | 0.00 | 0.00 | 52 | 1014.2 |
| 20260831075443 | 91 | 292 | 3.0 | 4.0 | 0.00 | 0.00 | 0.00 | 53 | 1014.0 |
| 20260831075242 | 91 | 292 | 2.0 | 4.0 | 0.00 | 0.00 | 0.00 | 54 | 1014.0 |
| 20260831075047 | 91 | 270 | 4.0 | 6.0 | 0.00 | 0.00 | 0.00 | 54 | 1014.0 |
| 20260831074841 | 90 | 292 | 2.0 | 4.0 | 0.00 | 0.00 | 0.00 | 54 | 1014.1 |
| 20260831074641 | 90 | 315 | 3.0 | 4.0 | 0.00 | 0.00 | 0.00 | 54 | 1013.9 |
| 20260831074443 | 90 | 338 | 2.0 | 2.0 | 0.00 | 0.00 | 0.00 | 55 | 1014.0 |
| 20260831074242 | 91 | 315 | 4.0 | 7.0 | 0.00 | 0.00 | 0.00 | 54 | 1014.0 |
| 20260831074050 | 91 | 292 | 2.0 | 4.0 | 0.00 | 0.00 | 0.00 | 55 | 1013.9 |
| 20260831073841 | 90 | 292 | 3.0 | 6.0 | 0.00 | 0.00 | 0.00 | 55 | 1014.0 |
| 20260831073642 | 90 | 292 | 2.0 | 4.0 | 0.00 | 0.00 | 0.00 | 55 | 1013.8 |
| 20260831073443 | 90 | 270 | 3.0 | 4.0 | 0.00 | 0.00 | 0.00 | 55 | 1014.0 |
| 20260831073243 | 90 | 292 | 1.0 | 2.0 | 0.00 | 0.00 | 0.00 | 55 | 1013.9 |
| 20260831073050 | 90 | 292 | 4.0 | 6.0 | 0.00 | 0.00 | 0.00 | 55 | 1014.0 |
| 20260831072843 | 90 | 292 | 2.0 | 4.0 | 0.00 | 0.00 | 0.00 | 55 | 1013.9 |
| 20260831072641 | 90 | 292 | 2.0 | 2.0 | 0.00 | 0.00 | 0.00 | 55 | 1014.0 |
| 20260831072443 | 89 | 292 | 0.0 | 2.0 | 0.00 | 0.00 | 0.00 | 56 | 1014.0 |
| 20260831072242 | 90 | 270 | 3.0 | 4.0 | 0.00 | 0.00 | 0.00 | 56 | 1013.9 |
| 20260831072047 | 90 | 0 | 1.0 | 2.0 | 0.00 | 0.00 | 0.00 | 57 | 1013.8 |
| 20260831071843 | 89 | 0 | 2.0 | 2.0 | 0.00 | 0.00 | 0.00 | 57 | 1014.0 |
| 20260831071643 | 89 | 338 | 2.0 | 2.0 | 0.00 | 0.00 | 0.00 | 57 | 1013.8 |
| 20260831071443 | 89 | 292 | 2.0 | 4.0 | 0.00 | 0.00 | 0.00 | 58 | 1013.8 |
| 20260831071243 | 89 | 292 | 2.0 | 4.0 | 0.00 | 0.00 | 0.00 | 57 | 1013.8 |
| 20260831071049 | 89 | 338 | 2.0 | 2.0 | 0.00 | 0.00 | 0.00 | 59 | 1014.2 |
| 20260831070643 | 89 | 270 | 1.0 | 2.0 | 0.00 | 0.00 | 0.00 | 58 | 1013.8 |
| 20260831070443 | 89 | 292 | 2.0 | 2.0 | 0.00 | 0.00 | 0.00 | 58 | 1014.0 |
| 20260831070241 | 89 | 0 | 2.0 | 2.0 | 0.00 | 0.00 | 0.00 | 58 | 1014.0 |
| 20260831070052 | 89 | 45 | 0.0 | 2.0 | 0.00 | 0.00 | 0.00 | 59 | 1014.0 |
| 20260831065842 | 89 | 292 | 2.0 | 4.0 | 0.00 | 0.00 | 0.00 | 58 | 1013.9 |
| 20260831065643 | 88 | 22 | 1.0 | 2.0 | 0.00 | 0.00 | 0.00 | 58 | 1014.0 |
| 20260831065242 | 88 | 0 | 2.0 | 4.0 | 0.00 | 0.00 | 0.00 | 59 | 1014.0 |
| 20260831065047 | 87 | 292 | 1.0 | 2.0 | 0.00 | 0.00 | 0.00 | 60 | 1014.0 |
| 20260831064444 | 88 | 292 | 2.0 | 2.0 | 0.00 | 0.00 | 0.00 | 60 | 1014.1 |
| 20260831064243 | 87 | 315 | 2.0 | 2.0 | 0.00 | 0.00 | 0.00 | 60 | 1014.3 |
| 20260831064050 | 87 | 292 | 2.0 | 4.0 | 0.00 | 0.00 | 0.00 | 60 | 1014.2 |
| 20260831063844 | 87 | 315 | 2.0 | 2.0 | 0.00 | 0.00 | 0.00 | 60 | 1014.1 |
| 20260831063641 | 87 | 338 | 1.0 | 2.0 | 0.00 | 0.00 | 0.00 | 60 | 1014.2 |
| 20260831063241 | 86 | 0 | 1.0 | 2.0 | 0.00 | 0.00 | 0.00 | 61 | 1014.2 |
| 20260831063049 | 86 | 315 | 2.0 | 2.0 | 0.00 | 0.00 | 0.00 | 62 | 1014.1 |
| 20260831062843 | 86 | 292 | 3.0 | 6.0 | 0.00 | 0.00 | 0.00 | 62 | 1014.1 |
| 20260831062642 | 85 | 315 | 2.0 | 4.0 | 0.00 | 0.00 | 0.00 | 63 | 1014.2 |
| 20260831062443 | 85 | 292 | 4.0 | 6.0 | 0.00 | 0.00 | 0.00 | 63 | 1014.2 |
| 20260831062046 | 85 | 270 | 2.0 | 4.0 | 0.00 | 0.00 | 0.00 | 63 | 1014.2 |
| 20260831061843 | 85 | 315 | 2.0 | 4.0 | 0.00 | 0.00 | 0.00 | 63 | 1014.4 |
| 20260831061641 | 85 | 292 | 1.0 | 2.0 | 0.00 | 0.00 | 0.00 | 64 | 1014.2 |
| 20260831061050 | 85 | 158 | 1.0 | 2.0 | 0.00 | 0.00 | 0.00 | 62 | 1014.3 |
| 20260831060842 | 85 | 270 | 0.0 | 0.0 | 0.00 | 0.00 | 0.00 | 62 | 1014.2 |
| 20260831060641 | 85 | 90 | 0.0 | 0.0 | 0.00 | 0.00 | 0.00 | 62 | 1014.2 |
| 20260831060443 | 85 | 112 | 0.0 | 0.0 | 0.00 | 0.00 | 0.00 | 62 | 1014.3 |
| 20260831060243 | 84 | 270 | 0.0 | 0.0 | 0.00 | 0.00 | 0.00 | 63 | 1014.2 |
| 20260831060052 | 84 | 248 | 0.0 | 0.0 | 0.00 | 0.00 | 0.00 | 64 | 1014.3 |
| 20260831055843 | 84 | 248 | 0.0 | 0.0 | 0.00 | 0.00 | 0.00 | 64 | 1014.4 |
| 20260831055643 | 84 | 135 | 1.0 | 2.0 | 0.00 | 0.00 | 0.00 | 65 | 1014.3 |
| 20260831055442 | 83 | 45 | 0.0 | 0.0 | 0.00 | 0.00 | 0.00 | 65 | 1014.2 |
| 20260831055242 | 83 | 90 | 0.0 | 2.0 | 0.00 | 0.00 | 0.00 | 65 | 1014.4 |
| 20260831055046 | 83 | 225 | 0.0 | 2.0 | 0.00 | 0.00 | 0.00 | 66 | 1014.3 |
| 20260831054843 | 82 | 158 | 1.0 | 2.0 | 0.00 | 0.00 | 0.00 | 66 | 1014.3 |
| 20260831054643 | 82 | 68 | 1.0 | 2.0 | 0.00 | 0.00 | 0.00 | 68 | 1014.2 |
| 20260831054441 | 82 | 112 | 1.0 | 2.0 | 0.00 | 0.00 | 0.00 | 68 | 1014.3 |
| 20260831053842 | 81 | 248 | 0.0 | 2.0 | 0.00 | 0.00 | 0.00 | 69 | 1014.3 |
| 20260831053643 | 81 | 135 | 1.0 | 2.0 | 0.00 | 0.00 | 0.00 | 69 | 1014.2 |
| 20260831053443 | 81 | 202 | 0.0 | 2.0 | 0.00 | 0.00 | 0.00 | 69 | 1014.3 |
| 20260831053241 | 81 | 248 | 0.0 | 0.0 | 0.00 | 0.00 | 0.00 | 69 | 1014.3 |
| 20260831053050 | 81 | 248 | 1.0 | 2.0 | 0.00 | 0.00 | 0.00 | 69 | 1014.3 |
| 20260831052842 | 80 | 270 | 0.0 | 0.0 | 0.00 | 0.00 | 0.00 | 70 | 1014.2 |
| 20260831052649 | 80 | 292 | 1.0 | 2.0 | 0.00 | 0.00 | 0.00 | 70 | 1014.0 |
| 20260831052443 | 80 | 292 | 0.0 | 2.0 | 0.00 | 0.00 | 0.00 | 71 | 1013.9 |
| 20260831052241 | 80 | 292 | 0.0 | 0.0 | 0.00 | 0.00 | 0.00 | 71 | 1014.3 |
| 20260831052047 | 80 | 338 | 0.0 | 2.0 | 0.00 | 0.00 | 0.00 | 71 | 1014.1 |
| 20260831051843 | 80 | 315 | 0.0 | 2.0 | 0.00 | 0.00 | 0.00 | 72 | 1014.0 |
| 20260831051642 | 79 | 315 | 0.0 | 2.0 | 0.00 | 0.00 | 0.00 | 72 | 1014.1 |
| 20260831051442 | 79 | 292 | 0.0 | 2.0 | 0.00 | 0.00 | 0.00 | 73 | 1014.1 |
| 20260831051242 | 79 | 315 | 0.0 | 2.0 | 0.00 | 0.00 | 0.00 | 73 | 1014.2 |
| 20260831051047 | 79 | 292 | 1.0 | 2.0 | 0.00 | 0.00 | 0.00 | 73 | 1014.0 |
| 20260831050842 | 78 | 292 | 1.0 | 2.0 | 0.00 | 0.00 | 0.00 | 73 | 1014.1 |
| 20260831050642 | 78 | 315 | 0.0 | 2.0 | 0.00 | 0.00 | 0.00 | 73 | 1014.1 |
| 20260831050442 | 78 | 315 | 0.0 | 0.0 | 0.00 | 0.00 | 0.00 | 74 | 1014.0 |
| 20260831050112 | 78 | 338 | 0.0 | 0.0 | 0.00 | 0.00 | 0.00 | 74 | 1014.0 |
| 20260831045844 | 78 | 292 | 0.0 | 2.0 | 0.00 | 0.00 | 0.00 | 74 | 1013.9 |
| 20260831045642 | 77 | 292 | 1.0 | 2.0 | 0.00 | 0.00 | 0.00 | 74 | 1013.8 |
| 20260831045443 | 77 | 292 | 1.0 | 2.0 | 0.00 | 0.00 | 0.00 | 74 | 1014.0 |
| 20260831045243 | 77 | 315 | 1.0 | 2.0 | 0.00 | 0.00 | 0.00 | 74 | 1014.1 |
| 20260831045047 | 77 | 315 | 0.0 | 2.0 | 0.00 | 0.00 | 0.00 | 74 | 1014.0 |
| 20260831044841 | 77 | 315 | 0.0 | 2.0 | 0.00 | 0.00 | 0.00 | 74 | 1014.0 |
| 20260831044641 | 77 | 315 | 1.0 | 2.0 | 0.00 | 0.00 | 0.00 | 74 | 1014.2 |
| 20260831044443 | 77 | 315 | 1.0 | 2.0 | 0.00 | 0.00 | 0.00 | 74 | 1014.2 |
| 20260831044243 | 77 | 292 | 1.0 | 2.0 | 0.00 | 0.00 | 0.00 | 75 | 1013.9 |
| 20260831044053 | 77 | 315 | 2.0 | 2.0 | 0.00 | 0.00 | 0.00 | 75 | 1013.8 |
| 20260831043842 | 77 | 292 | 2.0 | 2.0 | 0.00 | 0.00 | 0.00 | 75 | 1013.8 |
| 20260831043642 | 77 | 315 | 2.0 | 2.0 | 0.00 | 0.00 | 0.00 | 75 | 1013.9 |
| 20260831043444 | 77 | 315 | 2.0 | 2.0 | 0.00 | 0.00 | 0.00 | 75 | 1013.9 |
| 20260831043243 | 77 | 292 | 1.0 | 2.0 | 0.00 | 0.00 | 0.00 | 75 | 1014.0 |
| 20260831042841 | 77 | 315 | 2.0 | 2.0 | 0.00 | 0.00 | 0.00 | 74 | 1014.0 |
| 20260831042643 | 77 | 315 | 2.0 | 4.0 | 0.00 | 0.00 | 0.00 | 75 | 1013.9 |
| 20260831042443 | 77 | 292 | 1.0 | 2.0 | 0.00 | 0.00 | 0.00 | 74 | 1013.8 |
| 20260831042242 | 77 | 315 | 1.0 | 2.0 | 0.00 | 0.00 | 0.00 | 74 | 1013.9 |
| 20260831042047 | 77 | 315 | 1.0 | 2.0 | 0.00 | 0.00 | 0.00 | 74 | 1014.0 |
| 20260831041841 | 77 | 315 | 2.0 | 4.0 | 0.00 | 0.00 | 0.00 | 74 | 1013.8 |
| 20260831041642 | 76 | 315 | 2.0 | 4.0 | 0.00 | 0.00 | 0.00 | 74 | 1013.9 |
| 20260831041442 | 76 | 315 | 2.0 | 2.0 | 0.00 | 0.00 | 0.00 | 75 | 1013.8 |
| 20260831040842 | 76 | 292 | 2.0 | 2.0 | 0.00 | 0.00 | 0.00 | 75 | 1013.9 |
| 20260831040643 | 76 | 315 | 2.0 | 2.0 | 0.00 | 0.00 | 0.00 | 75 | 1013.8 |
| 20260831040443 | 76 | 292 | 2.0 | 2.0 | 0.00 | 0.00 | 0.00 | 75 | 1013.7 |
| 20260831040241 | 76 | 292 | 2.0 | 4.0 | 0.00 | 0.00 | 0.00 | 76 | 1013.7 |
| 20260831035843 | 76 | 292 | 2.0 | 2.0 | 0.00 | 0.00 | 0.00 | 76 | 1013.7 |
| 20260831035641 | 76 | 292 | 1.0 | 2.0 | 0.00 | 0.00 | 0.00 | 76 | 1013.6 |
| 20260831035443 | 75 | 292 | 1.0 | 2.0 | 0.00 | 0.00 | 0.00 | 77 | 1013.6 |
| 20260831035243 | 75 | 292 | 1.0 | 2.0 | 0.00 | 0.00 | 0.00 | 77 | 1013.8 |
| 20260831035047 | 76 | 292 | 1.0 | 2.0 | 0.00 | 0.00 | 0.00 | 77 | 1013.5 |
| 20260831034841 | 76 | 292 | 0.0 | 2.0 | 0.00 | 0.00 | 0.00 | 77 | 1013.7 |
| 20260831034643 | 76 | 315 | 1.0 | 2.0 | 0.00 | 0.00 | 0.00 | 77 | 1013.7 |
| 20260831034443 | 76 | 315 | 0.0 | 0.0 | 0.00 | 0.00 | 0.00 | 77 | 1013.5 |
| 20260831034056 | 76 | 292 | 1.0 | 2.0 | 0.00 | 0.00 | 0.00 | 76 | 1013.7 |
| 20260831033840 | 76 | 315 | 1.0 | 2.0 | 0.00 | 0.00 | 0.00 | 76 | 1013.8 |
| 20260831033444 | 76 | 292 | 0.0 | 0.0 | 0.00 | 0.00 | 0.00 | 75 | 1013.7 |
| 20260831033241 | 76 | 292 | 0.0 | 0.0 | 0.00 | 0.00 | 0.00 | 75 | 1013.7 |
| 20260831033058 | 76 | 292 | 0.0 | 0.0 | 0.00 | 0.00 | 0.00 | 75 | 1013.8 |
| 20260831032641 | 76 | 292 | 0.0 | 0.0 | 0.00 | 0.00 | 0.00 | 75 | 1013.7 |
| 20260831032243 | 76 | 292 | 0.0 | 0.0 | 0.00 | 0.00 | 0.00 | 75 | 1013.5 |
| 20260831032048 | 76 | 315 | 2.0 | 2.0 | 0.00 | 0.00 | 0.00 | 76 | 1013.7 |
| 20260831031843 | 76 | 315 | 0.0 | 2.0 | 0.00 | 0.00 | 0.00 | 76 | 1013.8 |
| 20260831031642 | 76 | 292 | 0.0 | 0.0 | 0.00 | 0.00 | 0.00 | 76 | 1013.7 |
| 20260831031442 | 76 | 292 | 0.0 | 2.0 | 0.00 | 0.00 | 0.00 | 76 | 1013.9 |
| 20260831031242 | 76 | 292 | 1.0 | 2.0 | 0.00 | 0.00 | 0.00 | 76 | 1013.8 |
| 20260831030843 | 76 | 292 | 0.0 | 0.0 | 0.00 | 0.00 | 0.00 | 76 | 1013.7 |
| 20260831030641 | 76 | 292 | 0.0 | 0.0 | 0.00 | 0.00 | 0.00 | 76 | 1013.9 |
| 20260831030242 | 76 | 292 | 0.0 | 0.0 | 0.00 | 0.00 | 0.00 | 76 | 1013.8 |
| 20260831030051 | 76 | 292 | 0.0 | 0.0 | 0.00 | 0.00 | 0.00 | 76 | 1013.8 |
| 20260831025642 | 76 | 270 | 0.0 | 0.0 | 0.00 | 0.00 | 0.00 | 76 | 1013.8 |
| 20260831025442 | 76 | 270 | 0.0 | 0.0 | 0.00 | 0.00 | 0.00 | 75 | 1013.8 |
| 20260831025243 | 76 | 270 | 0.0 | 0.0 | 0.00 | 0.00 | 0.00 | 75 | 1013.8 |
| 20260831025047 | 76 | 270 | 1.0 | 2.0 | 0.00 | 0.00 | 0.00 | 75 | 1013.7 |
| 20260831024050 | 76 | 292 | 1.0 | 2.0 | 0.00 | 0.00 | 0.00 | 76 | 1013.7 |
| 20260831023842 | 76 | 292 | 0.0 | 0.0 | 0.00 | 0.00 | 0.00 | 76 | 1013.8 |
| 20260831023641 | 76 | 292 | 0.0 | 0.0 | 0.00 | 0.00 | 0.00 | 76 | 1013.6 |
| 20260831023242 | 76 | 292 | 0.0 | 0.0 | 0.00 | 0.00 | 0.00 | 76 | 1013.7 |
| 20260831022842 | 77 | 292 | 0.0 | 0.0 | 0.00 | 0.00 | 0.00 | 76 | 1013.8 |
| 20260831022643 | 77 | 292 | 0.0 | 0.0 | 0.00 | 0.00 | 0.00 | 75 | 1013.8 |
| 20260831022443 | 77 | 292 | 0.0 | 0.0 | 0.00 | 0.00 | 0.00 | 75 | 1013.8 |
| 20260831022241 | 77 | 315 | 0.0 | 0.0 | 0.00 | 0.00 | 0.00 | 75 | 1013.9 |
| 20260831022047 | 77 | 315 | 0.0 | 0.0 | 0.00 | 0.00 | 0.00 | 75 | 1013.9 |
| 20260831021843 | 77 | 315 | 0.0 | 0.0 | 0.00 | 0.00 | 0.00 | 75 | 1013.8 |
| 20260831021642 | 77 | 338 | 0.0 | 2.0 | 0.00 | 0.00 | 0.00 | 75 | 1013.8 |
| 20260831021443 | 77 | 0 | 1.0 | 2.0 | 0.00 | 0.00 | 0.00 | 75 | 1013.9 |
| 20260831021053 | 77 | 22 | 0.0 | 0.0 | 0.00 | 0.00 | 0.00 | 75 | 1013.7 |
| 20260831020844 | 77 | 315 | 0.0 | 0.0 | 0.00 | 0.00 | 0.00 | 75 | 1013.7 |
| 20260831020642 | 77 | 338 | 0.0 | 0.0 | 0.00 | 0.00 | 0.00 | 75 | 1013.8 |
| 20260831020444 | 77 | 315 | 0.0 | 0.0 | 0.00 | 0.00 | 0.00 | 75 | 1013.6 |
| 20260831020243 | 77 | 315 | 0.0 | 0.0 | 0.00 | 0.00 | 0.00 | 75 | 1013.7 |
| 20260831020055 | 77 | 315 | 0.0 | 0.0 | 0.00 | 0.00 | 0.00 | 75 | 1013.9 |
| 20260831015842 | 77 | 315 | 0.0 | 2.0 | 0.00 | 0.00 | 0.00 | 75 | 1013.6 |
| 20260831015644 | 77 | 315 | 1.0 | 2.0 | 0.00 | 0.00 | 0.00 | 75 | 1013.6 |
| 20260831015241 | 77 | 338 | 0.0 | 2.0 | 0.00 | 0.00 | 0.00 | 74 | 1013.7 |
| 20260831014842 | 77 | 338 | 0.0 | 0.0 | 0.00 | 0.00 | 0.00 | 74 | 1013.7 |
| 20260831014641 | 77 | 338 | 0.0 | 0.0 | 0.00 | 0.00 | 0.00 | 74 | 1013.6 |
| 20260831014241 | 77 | 315 | 0.0 | 0.0 | 0.00 | 0.00 | 0.00 | 73 | 1013.8 |
| 20260831014049 | 78 | 0 | 1.0 | 2.0 | 0.00 | 0.00 | 0.00 | 73 | 1013.7 |
| 20260831013642 | 78 | 338 | 0.0 | 0.0 | 0.00 | 0.00 | 0.00 | 73 | 1013.7 |
| 20260831013442 | 78 | 315 | 0.0 | 0.0 | 0.00 | 0.00 | 0.00 | 73 | 1013.6 |
| 20260831013050 | 78 | 0 | 0.0 | 0.0 | 0.00 | 0.00 | 0.00 | 72 | 1013.8 |
| 20260831012642 | 78 | 0 | 0.0 | 0.0 | 0.00 | 0.00 | 0.00 | 72 | 1013.5 |
| 20260831012442 | 78 | 315 | 0.0 | 0.0 | 0.00 | 0.00 | 0.00 | 72 | 1013.7 |
| 20260831012241 | 78 | 315 | 0.0 | 0.0 | 0.00 | 0.00 | 0.00 | 72 | 1013.5 |
| 20260831012046 | 78 | 315 | 0.0 | 0.0 | 0.00 | 0.00 | 0.00 | 72 | 1013.6 |
| 20260831011843 | 78 | 315 | 0.0 | 0.0 | 0.00 | 0.00 | 0.00 | 72 | 1013.5 |
| 20260831011643 | 78 | 0 | 0.0 | 0.0 | 0.00 | 0.00 | 0.00 | 72 | 1013.5 |
| 20260831011442 | 78 | 315 | 0.0 | 0.0 | 0.00 | 0.00 | 0.00 | 71 | 1013.3 |
| 20260831011243 | 78 | 0 | 0.0 | 0.0 | 0.00 | 0.00 | 0.00 | 71 | 1013.4 |
| 20260831011052 | 78 | 0 | 0.0 | 0.0 | 0.00 | 0.00 | 0.00 | 71 | 1013.5 |
| 20260831010841 | 79 | 315 | 1.0 | 2.0 | 0.00 | 0.00 | 0.00 | 71 | 1013.7 |
| 20260831010444 | 79 | 338 | 0.0 | 2.0 | 0.00 | 0.00 | 0.00 | 70 | 1013.3 |
| 20260831010242 | 79 | 315 | 0.0 | 2.0 | 0.00 | 0.00 | 0.00 | 69 | 1013.5 |
| 20260831010050 | 79 | 315 | 0.0 | 0.0 | 0.00 | 0.00 | 0.00 | 69 | 1013.5 |
| 20260831005842 | 79 | 315 | 0.0 | 0.0 | 0.00 | 0.00 | 0.00 | 69 | 1013.4 |
| 20260831005643 | 80 | 315 | 0.0 | 0.0 | 0.00 | 0.00 | 0.00 | 69 | 1013.6 |
| 20260831005240 | 80 | 338 | 0.0 | 0.0 | 0.00 | 0.00 | 0.00 | 68 | 1013.4 |
| 20260831005046 | 80 | 248 | 0.0 | 0.0 | 0.00 | 0.00 | 0.00 | 68 | 1013.3 |
| 20260831004641 | 80 | 248 | 0.0 | 0.0 | 0.00 | 0.00 | 0.00 | 67 | 1013.3 |
| 20260831004443 | 80 | 248 | 0.0 | 0.0 | 0.00 | 0.00 | 0.00 | 67 | 1013.4 |
| 20260831004242 | 80 | 248 | 0.0 | 0.0 | 0.00 | 0.00 | 0.00 | 67 | 1013.3 |
| 20260831004051 | 80 | 270 | 0.0 | 0.0 | 0.00 | 0.00 | 0.00 | 67 | 1013.3 |
| 20260831003843 | 80 | 270 | 0.0 | 0.0 | 0.00 | 0.00 | 0.00 | 66 | 1013.3 |
| 20260831003641 | 80 | 270 | 0.0 | 0.0 | 0.00 | 0.00 | 0.00 | 67 | 1013.3 |
| 20260831003444 | 80 | 292 | 0.0 | 0.0 | 0.00 | 0.00 | 0.00 | 67 | 1013.4 |
| 20260831003243 | 80 | 270 | 1.0 | 2.0 | 0.00 | 0.00 | 0.00 | 67 | 1013.2 |
| 20260831003052 | 80 | 292 | 0.0 | 0.0 | 0.00 | 0.00 | 0.00 | 66 | 1013.1 |
| 20260831002441 | 80 | 315 | 0.0 | 0.0 | 0.00 | 0.00 | 0.00 | 67 | 1013.2 |
| 20260831002242 | 80 | 338 | 0.0 | 2.0 | 0.00 | 0.00 | 0.00 | 68 | 1013.1 |
| 20260831001442 | 80 | 22 | 0.0 | 0.0 | 0.00 | 0.00 | 0.00 | 68 | 1013.3 |
| 20260831001243 | 80 | 22 | 0.0 | 0.0 | 0.00 | 0.00 | 0.00 | 68 | 1013.2 |
| 20260831001052 | 80 | 90 | 1.0 | 2.0 | 0.00 | 0.00 | 0.00 | 68 | 1013.2 |
| 20260831000841 | 80 | 45 | 2.0 | 2.0 | 0.00 | 0.00 | 0.00 | 67 | 1013.3 |
| 20260831000642 | 80 | 45 | 2.0 | 2.0 | 0.00 | 0.00 | 0.00 | 67 | 1013.3 |
| 20260831000444 | 80 | 45 | 2.0 | 2.0 | 0.00 | 0.00 | 0.00 | 67 | 1013.2 |
| 20260831000053 | 80 | 90 | 2.0 | 2.0 | 0.00 | 0.00 | 0.00 | 67 | 1013.3 |
| 20260830235842 | 80 | 68 | 1.0 | 2.0 | 0.00 | 0.00 | 0.00 | 67 | 1013.2 |
| 20260830235642 | 80 | 68 | 1.0 | 2.0 | 0.00 | 0.00 | 0.00 | 67 | 1013.2 |
| 20260830235443 | 80 | 90 | 1.0 | 2.0 | 0.00 | 0.00 | 0.00 | 67 | 1013.3 |
| 20260830235241 | 80 | 68 | 2.0 | 2.0 | 0.00 | 0.00 | 0.00 | 67 | 1013.2 |
| 20260830235047 | 80 | 68 | 2.0 | 2.0 | 0.00 | 0.00 | 0.00 | 67 | 1013.3 |
| 20260830234841 | 80 | 68 | 1.0 | 2.0 | 0.00 | 0.00 | 0.00 | 67 | 1013.4 |
| 20260830234243 | 80 | 90 | 0.0 | 0.0 | 0.00 | 0.00 | 0.00 | 66 | 1013.2 |
| 20260830234051 | 81 | 68 | 0.0 | 0.0 | 0.00 | 0.00 | 0.00 | 66 | 1013.1 |
| 20260830233641 | 81 | 0 | 0.0 | 0.0 | 0.00 | 0.00 | 0.00 | 65 | 1013.1 |
| 20260830233444 | 81 | 0 | 0.0 | 0.0 | 0.00 | 0.00 | 0.00 | 65 | 1013.3 |
| 20260830233242 | 81 | 292 | 0.0 | 0.0 | 0.00 | 0.00 | 0.00 | 64 | 1013.0 |
| 20260830233049 | 81 | 292 | 0.0 | 0.0 | 0.00 | 0.00 | 0.00 | 64 | 1013.3 |
| 20260830232842 | 81 | 315 | 0.0 | 0.0 | 0.00 | 0.00 | 0.00 | 64 | 1013.2 |
| 20260830232643 | 81 | 315 | 1.0 | 2.0 | 0.00 | 0.00 | 0.00 | 64 | 1013.1 |
| 20260830232446 | 81 | 315 | 0.0 | 2.0 | 0.00 | 0.00 | 0.00 | 64 | 1013.3 |
| 20260830231842 | 82 | 292 | 0.0 | 0.0 | 0.00 | 0.00 | 0.00 | 64 | 1013.1 |
| 20260830231642 | 82 | 315 | 1.0 | 2.0 | 0.00 | 0.00 | 0.00 | 63 | 1013.2 |
| 20260830231442 | 82 | 315 | 2.0 | 2.0 | 0.00 | 0.00 | 0.00 | 63 | 1013.3 |
| 20260830231048 | 82 | 315 | 1.0 | 2.0 | 0.00 | 0.00 | 0.00 | 63 | 1013.1 |
| 20260830230841 | 82 | 315 | 2.0 | 2.0 | 0.00 | 0.00 | 0.00 | 63 | 1013.0 |
| 20260830230642 | 82 | 292 | 2.0 | 2.0 | 0.00 | 0.00 | 0.00 | 63 | 1013.2 |
| 20260830230444 | 82 | 292 | 2.0 | 2.0 | 0.00 | 0.00 | 0.00 | 62 | 1013.0 |
| 20260830230050 | 82 | 292 | 2.0 | 4.0 | 0.00 | 0.00 | 0.00 | 62 | 1013.0 |
| 20260830225842 | 82 | 292 | 2.0 | 2.0 | 0.00 | 0.00 | 0.00 | 62 | 1013.1 |
| 20260830225643 | 82 | 292 | 1.0 | 2.0 | 0.00 | 0.00 | 0.00 | 62 | 1013.1 |
| 20260830225442 | 83 | 315 | 2.0 | 2.0 | 0.00 | 0.00 | 0.00 | 62 | 1013.4 |
| 20260830225047 | 83 | 292 | 1.0 | 2.0 | 0.00 | 0.00 | 0.00 | 61 | 1013.2 |
| 20260830224642 | 84 | 315 | 1.0 | 2.0 | 0.00 | 0.00 | 0.00 | 61 | 1013.2 |
| 20260830224441 | 84 | 45 | 0.0 | 2.0 | 0.00 | 0.00 | 0.00 | 61 | 1013.3 |
| 20260830224242 | 84 | 315 | 2.0 | 2.0 | 0.00 | 0.00 | 0.00 | 61 | 1013.3 |
| 20260830224052 | 84 | 292 | 1.0 | 2.0 | 0.00 | 0.00 | 0.00 | 60 | 1013.1 |
| 20260830223842 | 84 | 292 | 1.0 | 2.0 | 0.00 | 0.00 | 0.00 | 60 | 1013.2 |
| 20260830223642 | 84 | 292 | 2.0 | 4.0 | 0.00 | 0.00 | 0.00 | 60 | 1013.1 |
| 20260830223443 | 85 | 292 | 2.0 | 4.0 | 0.00 | 0.00 | 0.00 | 60 | 1013.2 |
| 20260830223241 | 85 | 270 | 3.0 | 4.0 | 0.00 | 0.00 | 0.00 | 59 | 1013.1 |
| 20260830223049 | 85 | 315 | 3.0 | 4.0 | 0.00 | 0.00 | 0.00 | 59 | 1013.1 |
| 20260830222842 | 85 | 292 | 3.0 | 6.0 | 0.00 | 0.00 | 0.00 | 59 | 1013.0 |
| 20260830222441 | 85 | 292 | 3.0 | 4.0 | 0.00 | 0.00 | 0.00 | 59 | 1013.1 |
| 20260830222242 | 85 | 270 | 4.0 | 7.0 | 0.00 | 0.00 | 0.00 | 59 | 1013.0 |
| 20260830222046 | 85 | 292 | 4.0 | 7.0 | 0.00 | 0.00 | 0.00 | 59 | 1013.0 |
| 20260830221844 | 85 | 270 | 5.0 | 9.0 | 0.00 | 0.00 | 0.00 | 59 | 1013.0 |
| 20260830221643 | 85 | 292 | 4.0 | 8.0 | 0.00 | 0.00 | 0.00 | 59 | 1013.0 |
| 20260830221443 | 85 | 270 | 5.0 | 8.0 | 0.00 | 0.00 | 0.00 | 59 | 1013.1 |
| 20260830221242 | 85 | 292 | 6.0 | 9.0 | 0.00 | 0.00 | 0.00 | 58 | 1013.1 |
| 20260830221051 | 85 | 270 | 4.0 | 8.0 | 0.00 | 0.00 | 0.00 | 59 | 1012.8 |
| 20260830220842 | 85 | 270 | 5.0 | 9.0 | 0.00 | 0.00 | 0.00 | 59 | 1013.1 |
| 20260830220442 | 85 | 292 | 4.0 | 4.0 | 0.00 | 0.00 | 0.00 | 58 | 1013.1 |
| 20260830220242 | 85 | 270 | 4.0 | 8.0 | 0.00 | 0.00 | 0.00 | 58 | 1013.0 |
| 20260830220104 | 85 | 270 | 4.0 | 7.0 | 0.00 | 0.00 | 0.00 | 58 | 1012.9 |
| 20260830215842 | 86 | 292 | 4.0 | 7.0 | 0.00 | 0.00 | 0.00 | 58 | 1013.1 |
| 20260830215443 | 85 | 270 | 6.0 | 9.0 | 0.00 | 0.00 | 0.00 | 58 | 1013.1 |
| 20260830215241 | 85 | 248 | 4.0 | 8.0 | 0.00 | 0.00 | 0.00 | 58 | 1013.0 |
| 20260830215047 | 85 | 270 | 6.0 | 8.0 | 0.00 | 0.00 | 0.00 | 58 | 1012.9 |
| 20260830214842 | 85 | 292 | 6.0 | 8.0 | 0.00 | 0.00 | 0.00 | 58 | 1013.0 |
| 20260830214641 | 85 | 270 | 4.0 | 7.0 | 0.00 | 0.00 | 0.00 | 58 | 1013.1 |
| 20260830214443 | 86 | 270 | 4.0 | 6.0 | 0.00 | 0.00 | 0.00 | 58 | 1012.8 |
| 20260830214242 | 86 | 270 | 6.0 | 9.0 | 0.00 | 0.00 | 0.00 | 58 | 1013.0 |
| 20260830214050 | 86 | 270 | 4.0 | 8.0 | 0.00 | 0.00 | 0.00 | 58 | 1012.9 |
| 20260830213841 | 86 | 248 | 5.0 | 8.0 | 0.00 | 0.00 | 0.00 | 58 | 1012.9 |
| 20260830213642 | 86 | 270 | 8.0 | 14.0 | 0.00 | 0.00 | 0.00 | 58 | 1012.8 |
| 20260830213442 | 86 | 270 | 6.0 | 11.0 | 0.00 | 0.00 | 0.00 | 58 | 1013.0 |
| 20260830213243 | 86 | 292 | 5.0 | 8.0 | 0.00 | 0.00 | 0.00 | 58 | 1012.7 |
| 20260830213048 | 86 | 270 | 5.0 | 9.0 | 0.00 | 0.00 | 0.00 | 58 | 1012.8 |
| 20260830212642 | 86 | 270 | 4.0 | 8.0 | 0.00 | 0.00 | 0.00 | 59 | 1012.8 |
| 20260830212440 | 86 | 292 | 4.0 | 8.0 | 0.00 | 0.00 | 0.00 | 59 | 1012.9 |
| 20260830212243 | 86 | 292 | 6.0 | 9.0 | 0.00 | 0.00 | 0.00 | 59 | 1012.9 |
| 20260830212047 | 86 | 248 | 4.0 | 6.0 | 0.00 | 0.00 | 0.00 | 59 | 1012.8 |
| 20260830211842 | 86 | 270 | 4.0 | 7.0 | 0.00 | 0.00 | 0.00 | 59 | 1012.7 |
| 20260830211641 | 86 | 292 | 8.0 | 13.0 | 0.00 | 0.00 | 0.00 | 59 | 1012.8 |
| 20260830211441 | 86 | 270 | 8.0 | 11.0 | 0.00 | 0.00 | 0.00 | 59 | 1012.9 |
| 20260830211241 | 86 | 270 | 6.0 | 11.0 | 0.00 | 0.00 | 0.00 | 59 | 1012.8 |
| 20260830211049 | 86 | 270 | 5.0 | 9.0 | 0.00 | 0.00 | 0.00 | 59 | 1012.7 |
| 20260830210842 | 87 | 270 | 8.0 | 14.0 | 0.00 | 0.00 | 0.00 | 59 | 1012.9 |
| 20260830210643 | 86 | 270 | 8.0 | 11.0 | 0.00 | 0.00 | 0.00 | 59 | 1012.7 |
| 20260830210443 | 86 | 270 | 7.0 | 9.0 | 0.00 | 0.00 | 0.00 | 59 | 1012.9 |
| 20260830210242 | 87 | 270 | 8.0 | 11.0 | 0.00 | 0.00 | 0.00 | 59 | 1012.8 |
| 20260830210053 | 87 | 248 | 7.0 | 11.0 | 0.00 | 0.00 | 0.00 | 59 | 1012.9 |
| 20260830205843 | 87 | 270 | 5.0 | 9.0 | 0.00 | 0.00 | 0.00 | 59 | 1012.7 |
| 20260830205643 | 87 | 270 | 8.0 | 11.0 | 0.00 | 0.00 | 0.00 | 59 | 1012.8 |
| 20260830205442 | 87 | 270 | 10.0 | 13.0 | 0.00 | 0.00 | 0.00 | 58 | 1012.7 |
| 20260830205243 | 87 | 225 | 9.0 | 11.0 | 0.00 | 0.00 | 0.00 | 58 | 1013.0 |
| 20260830205045 | 87 | 270 | 5.0 | 7.0 | 0.00 | 0.00 | 0.00 | 59 | 1012.7 |
| 20260830204843 | 87 | 248 | 6.0 | 9.0 | 0.00 | 0.00 | 0.00 | 58 | 1012.8 |
| 20260830204642 | 87 | 248 | 8.0 | 13.0 | 0.00 | 0.00 | 0.00 | 58 | 1012.6 |
| 20260830204442 | 87 | 225 | 7.0 | 9.0 | 0.00 | 0.00 | 0.00 | 58 | 1012.5 |
| 20260830204050 | 87 | 270 | 6.0 | 8.0 | 0.00 | 0.00 | 0.00 | 58 | 1012.6 |
| 20260830203842 | 87 | 270 | 7.0 | 11.0 | 0.00 | 0.00 | 0.00 | 58 | 1012.7 |
| 20260830203642 | 87 | 270 | 6.0 | 8.0 | 0.00 | 0.00 | 0.00 | 58 | 1012.7 |
| 20260830203443 | 87 | 248 | 9.0 | 13.0 | 0.00 | 0.00 | 0.00 | 57 | 1012.6 |
| 20260830203243 | 87 | 270 | 10.0 | 15.0 | 0.00 | 0.00 | 0.00 | 57 | 1012.5 |
| 20260830203049 | 87 | 270 | 7.0 | 13.0 | 0.00 | 0.00 | 0.00 | 58 | 1012.5 |
| 20260830202643 | 87 | 270 | 9.0 | 11.0 | 0.00 | 0.00 | 0.00 | 57 | 1012.3 |
| 20260830202441 | 87 | 292 | 8.0 | 13.0 | 0.00 | 0.00 | 0.00 | 57 | 1012.3 |
| 20260830202242 | 87 | 248 | 8.0 | 13.0 | 0.00 | 0.00 | 0.00 | 58 | 1012.5 |
| 20260830202046 | 87 | 270 | 6.0 | 11.0 | 0.00 | 0.00 | 0.00 | 58 | 1012.5 |
| 20260830201843 | 87 | 270 | 8.0 | 11.0 | 0.00 | 0.00 | 0.00 | 57 | 1012.5 |
| 20260830201641 | 87 | 270 | 8.0 | 14.0 | 0.00 | 0.00 | 0.00 | 57 | 1012.6 |
| 20260830201442 | 87 | 270 | 7.0 | 9.0 | 0.00 | 0.00 | 0.00 | 58 | 1012.4 |
| 20260830201243 | 87 | 315 | 7.0 | 11.0 | 0.00 | 0.00 | 0.00 | 58 | 1012.4 |
| 20260830201049 | 87 | 248 | 8.0 | 11.0 | 0.00 | 0.00 | 0.00 | 58 | 1012.5 |
| 20260830200841 | 87 | 248 | 8.0 | 13.0 | 0.00 | 0.00 | 0.00 | 58 | 1012.4 |
| 20260830200643 | 87 | 270 | 7.0 | 11.0 | 0.00 | 0.00 | 0.00 | 58 | 1012.4 |
| 20260830200103 | 88 | 248 | 8.0 | 13.0 | 0.00 | 0.00 | 0.00 | 58 | 1012.4 |
| 20260830195842 | 88 | 248 | 6.0 | 8.0 | 0.00 | 0.00 | 0.00 | 58 | 1012.6 |
| 20260830195643 | 88 | 270 | 10.0 | 13.0 | 0.00 | 0.00 | 0.00 | 58 | 1012.5 |
| 20260830195442 | 88 | 248 | 9.0 | 13.0 | 0.00 | 0.00 | 0.00 | 58 | 1012.6 |
| 20260830195242 | 88 | 248 | 8.0 | 14.0 | 0.00 | 0.00 | 0.00 | 58 | 1012.4 |
| 20260830195046 | 88 | 225 | 8.0 | 13.0 | 0.00 | 0.00 | 0.00 | 58 | 1012.4 |
| 20260830194843 | 88 | 270 | 10.0 | 14.0 | 0.00 | 0.00 | 0.00 | 58 | 1012.3 |
| 20260830194242 | 88 | 270 | 8.0 | 9.0 | 0.00 | 0.00 | 0.00 | 58 | 1012.6 |
| 20260830194049 | 88 | 292 | 9.0 | 11.0 | 0.00 | 0.00 | 0.00 | 58 | 1012.3 |
| 20260830193842 | 88 | 248 | 7.0 | 11.0 | 0.00 | 0.00 | 0.00 | 58 | 1012.6 |
| 20260830193642 | 88 | 248 | 10.0 | 15.0 | 0.00 | 0.00 | 0.00 | 58 | 1012.2 |
| 20260830193242 | 88 | 292 | 8.0 | 11.0 | 0.00 | 0.00 | 0.00 | 58 | 1012.4 |
| 20260830193049 | 88 | 270 | 6.0 | 9.0 | 0.00 | 0.00 | 0.00 | 58 | 1012.5 |
| 20260830192841 | 88 | 292 | 7.0 | 11.0 | 0.00 | 0.00 | 0.00 | 58 | 1012.5 |
| 20260830192642 | 88 | 270 | 7.0 | 11.0 | 0.00 | 0.00 | 0.00 | 58 | 1012.3 |
| 20260830192441 | 88 | 225 | 8.0 | 11.0 | 0.00 | 0.00 | 0.00 | 58 | 1012.4 |
| 20260830192047 | 88 | 270 | 5.0 | 8.0 | 0.00 | 0.00 | 0.00 | 58 | 1012.5 |
| 20260830191642 | 88 | 292 | 5.0 | 8.0 | 0.00 | 0.00 | 0.00 | 58 | 1012.5 |
| 20260830191443 | 88 | 292 | 4.0 | 6.0 | 0.00 | 0.00 | 0.00 | 58 | 1012.5 |
| 20260830191243 | 88 | 270 | 2.0 | 4.0 | 0.00 | 0.00 | 0.00 | 58 | 1012.4 |
| 20260830191052 | 88 | 292 | 5.0 | 7.0 | 0.00 | 0.00 | 0.00 | 58 | 1012.4 |
| 20260830190842 | 88 | 270 | 4.0 | 4.0 | 0.00 | 0.00 | 0.00 | 58 | 1012.3 |
| 20260830190642 | 88 | 292 | 4.0 | 4.0 | 0.00 | 0.00 | 0.00 | 57 | 1012.4 |
| 20260830190442 | 88 | 270 | 4.0 | 6.0 | 0.00 | 0.00 | 0.00 | 57 | 1012.3 |
| 20260830190243 | 88 | 270 | 2.0 | 2.0 | 0.00 | 0.00 | 0.00 | 57 | 1012.3 |
| 20260830185844 | 88 | 292 | 2.0 | 2.0 | 0.00 | 0.00 | 0.00 | 57 | 1012.4 |
| 20260830185641 | 88 | 292 | 3.0 | 4.0 | 0.00 | 0.00 | 0.00 | 56 | 1012.3 |
| 20260830185242 | 88 | 315 | 2.0 | 4.0 | 0.00 | 0.00 | 0.00 | 57 | 1012.3 |
| 20260830184843 | 88 | 270 | 3.0 | 4.0 | 0.00 | 0.00 | 0.00 | 57 | 1012.1 |
| 20260830184643 | 88 | 338 | 2.0 | 2.0 | 0.00 | 0.00 | 0.00 | 56 | 1012.2 |
| 20260830184443 | 88 | 292 | 4.0 | 7.0 | 0.00 | 0.00 | 0.00 | 56 | 1012.2 |
| 20260830184242 | 88 | 315 | 2.0 | 4.0 | 0.00 | 0.00 | 0.00 | 56 | 1012.2 |
| 20260830184050 | 89 | 315 | 1.0 | 2.0 | 0.00 | 0.00 | 0.00 | 56 | 1012.2 |
| 20260830183843 | 89 | 292 | 3.0 | 6.0 | 0.00 | 0.00 | 0.00 | 55 | 1012.0 |
| 20260830183643 | 89 | 292 | 2.0 | 4.0 | 0.00 | 0.00 | 0.00 | 55 | 1012.1 |
| 20260830183442 | 89 | 292 | 3.0 | 6.0 | 0.00 | 0.00 | 0.00 | 55 | 1012.0 |
| 20260830183242 | 89 | 270 | 6.0 | 11.0 | 0.00 | 0.00 | 0.00 | 54 | 1011.8 |
| 20260830183049 | 89 | 292 | 5.0 | 8.0 | 0.00 | 0.00 | 0.00 | 54 | 1011.8 |
| 20260830182642 | 89 | 225 | 4.0 | 9.0 | 0.00 | 0.00 | 0.00 | 54 | 1011.8 |
| 20260830182442 | 89 | 270 | 6.0 | 9.0 | 0.00 | 0.00 | 0.00 | 54 | 1011.6 |
| 20260830182242 | 89 | 270 | 4.0 | 6.0 | 0.00 | 0.00 | 0.00 | 54 | 1011.6 |
| 20260830182047 | 89 | 248 | 4.0 | 7.0 | 0.00 | 0.00 | 0.00 | 54 | 1011.6 |
| 20260830181843 | 89 | 270 | 2.0 | 4.0 | 0.00 | 0.00 | 0.00 | 53 | 1011.6 |
| 20260830181643 | 89 | 248 | 4.0 | 7.0 | 0.00 | 0.00 | 0.00 | 53 | 1011.4 |
| 20260830181443 | 90 | 270 | 3.0 | 6.0 | 0.00 | 0.00 | 0.00 | 53 | 1011.5 |
| 20260830181051 | 90 | 248 | 4.0 | 8.0 | 0.00 | 0.00 | 0.00 | 53 | 1011.4 |
| 20260830180642 | 89 | 225 | 4.0 | 9.0 | 0.00 | 0.00 | 0.00 | 52 | 1011.6 |
| 20260830180243 | 90 | 248 | 2.0 | 4.0 | 0.00 | 0.00 | 0.00 | 52 | 1011.2 |
| 20260830180051 | 90 | 270 | 2.0 | 4.0 | 0.00 | 0.00 | 0.00 | 52 | 1011.4 |
| 20260830175643 | 90 | 270 | 4.0 | 8.0 | 0.00 | 0.00 | 0.00 | 50 | 1011.3 |
| 20260830175442 | 90 | 225 | 4.0 | 6.0 | 0.00 | 0.00 | 0.00 | 50 | 1011.3 |
| 20260830175242 | 90 | 225 | 4.0 | 7.0 | 0.00 | 0.00 | 0.00 | 50 | 1011.4 |
| 20260830175046 | 90 | 202 | 5.0 | 9.0 | 0.00 | 0.00 | 0.00 | 50 | 1011.3 |
| 20260830174843 | 91 | 180 | 4.0 | 8.0 | 0.00 | 0.00 | 0.00 | 49 | 1011.4 |
| 20260830174642 | 91 | 225 | 4.0 | 7.0 | 0.00 | 0.00 | 0.00 | 49 | 1011.3 |
| 20260830174442 | 91 | 225 | 4.0 | 6.0 | 0.00 | 0.00 | 0.00 | 49 | 1011.3 |
| 20260830174243 | 91 | 248 | 3.0 | 6.0 | 0.00 | 0.00 | 0.00 | 49 | 1011.3 |
| 20260830174049 | 91 | 180 | 4.0 | 4.0 | 0.00 | 0.00 | 0.00 | 49 | 1011.3 |
| 20260830173643 | 92 | 248 | 5.0 | 9.0 | 0.00 | 0.00 | 0.00 | 48 | 1011.1 |
| 20260830173442 | 92 | 270 | 5.0 | 8.0 | 0.00 | 0.00 | 0.00 | 48 | 1011.2 |
| 20260830173049 | 92 | 270 | 7.0 | 11.0 | 0.00 | 0.00 | 0.00 | 47 | 1011.1 |
| 20260830172843 | 92 | 292 | 8.0 | 11.0 | 0.00 | 0.00 | 0.00 | 47 | 1011.1 |
| 20260830172444 | 93 | 248 | 4.0 | 9.0 | 0.00 | 0.00 | 0.00 | 46 | 1011.1 |
| 20260830172243 | 93 | 225 | 8.0 | 15.0 | 0.00 | 0.00 | 0.00 | 46 | 1011.0 |
| 20260830171847 | 93 | 270 | 8.0 | 11.0 | 0.00 | 0.00 | 0.00 | 45 | 1011.1 |
| 20260830171643 | 93 | 248 | 10.0 | 16.0 | 0.00 | 0.00 | 0.00 | 45 | 1011.1 |
| 20260830171443 | 93 | 225 | 11.0 | 15.0 | 0.00 | 0.00 | 0.00 | 44 | 1011.1 |
| 20260830171243 | 93 | 292 | 8.0 | 13.0 | 0.00 | 0.00 | 0.00 | 44 | 1011.1 |
| 20260830170842 | 94 | 292 | 11.0 | 15.0 | 0.00 | 0.00 | 0.00 | 43 | 1010.9 |
| 20260830170443 | 94 | 292 | 6.0 | 11.0 | 0.00 | 0.00 | 0.00 | 43 | 1010.9 |
| 20260830170243 | 94 | 248 | 8.0 | 11.0 | 0.00 | 0.00 | 0.00 | 43 | 1010.9 |
| 20260830170053 | 94 | 248 | 7.0 | 11.0 | 0.00 | 0.00 | 0.00 | 43 | 1010.8 |
| 20260830165642 | 94 | 202 | 10.0 | 15.0 | 0.00 | 0.00 | 0.00 | 42 | 1010.8 |
| 20260830165443 | 94 | 270 | 8.0 | 11.0 | 0.00 | 0.00 | 0.00 | 42 | 1010.9 |
| 20260830165244 | 94 | 315 | 8.0 | 14.0 | 0.00 | 0.00 | 0.00 | 42 | 1010.8 |
| 20260830164843 | 94 | 270 | 6.0 | 11.0 | 0.00 | 0.00 | 0.00 | 42 | 1010.8 |
| 20260830164444 | 94 | 202 | 7.0 | 11.0 | 0.00 | 0.00 | 0.00 | 42 | 1010.8 |
| 20260830164257 | 94 | 158 | 8.0 | 13.0 | 0.00 | 0.00 | 0.00 | 42 | 1010.9 |
| 20260830164050 | 94 | 292 | 10.0 | 15.0 | 0.00 | 0.00 | 0.00 | 42 | 1010.9 |
| 20260830163843 | 93 | 270 | 8.0 | 13.0 | 0.00 | 0.00 | 0.00 | 44 | 1010.8 |
| 20260830163644 | 93 | 225 | 7.0 | 13.0 | 0.00 | 0.00 | 0.00 | 45 | 1010.8 |
| 20260830163442 | 93 | 248 | 4.0 | 6.0 | 0.00 | 0.00 | 0.00 | 50 | 1010.9 |
| 20260830163242 | 93 | 225 | 4.0 | 8.0 | 0.00 | 0.00 | 0.00 | 49 | 1010.8 |
| 20260830163049 | 92 | 202 | 5.0 | 9.0 | 0.00 | 0.00 | 0.00 | 50 | 1010.9 |
| 20260830162843 | 91 | 248 | 5.0 | 8.0 | 0.00 | 0.00 | 0.00 | 51 | 1011.0 |
| 20260830162643 | 91 | 270 | 3.0 | 4.0 | 0.00 | 0.00 | 0.00 | 59 | 1011.2 |
| 20260830162243 | 90 | 202 | 4.0 | 6.0 | 0.00 | 0.00 | 0.00 | 62 | 1011.1 |
| 20260830162047 | 90 | 90 | 4.0 | 7.0 | 0.00 | 0.00 | 0.00 | 61 | 1011.3 |
| 20260830161843 | 91 | 158 | 4.0 | 7.0 | 0.00 | 0.00 | 0.00 | 61 | 1011.2 |
| 20260830161643 | 91 | 202 | 4.0 | 7.0 | 0.00 | 0.00 | 0.00 | 60 | 1011.2 |
| 20260830161443 | 91 | 202 | 2.0 | 4.0 | 0.00 | 0.00 | 0.00 | 60 | 1011.2 |
| 20260830161243 | 91 | 180 | 4.0 | 6.0 | 0.00 | 0.00 | 0.00 | 60 | 1011.4 |
| 20260830161054 | 91 | 180 | 3.0 | 4.0 | 0.00 | 0.00 | 0.00 | 61 | 1011.3 |
| 20260830160843 | 91 | 202 | 2.0 | 4.0 | 0.00 | 0.00 | 0.00 | 60 | 1011.4 |
| 20260830160643 | 91 | 158 | 3.0 | 4.0 | 0.00 | 0.00 | 0.00 | 60 | 1011.3 |
| 20260830160443 | 90 | 180 | 2.0 | 4.0 | 0.00 | 0.00 | 0.00 | 61 | 1011.2 |
| 20260830160243 | 90 | 135 | 4.0 | 6.0 | 0.00 | 0.00 | 0.00 | 61 | 1011.4 |
| 20260830160052 | 90 | 158 | 4.0 | 7.0 | 0.00 | 0.00 | 0.00 | 61 | 1011.5 |
| 20260830155841 | 91 | 135 | 4.0 | 8.0 | 0.00 | 0.00 | 0.00 | 61 | 1011.4 |
| 20260830155642 | 91 | 180 | 4.0 | 6.0 | 0.00 | 0.00 | 0.00 | 61 | 1011.5 |
| 20260830155443 | 90 | 112 | 4.0 | 7.0 | 0.00 | 0.00 | 0.00 | 62 | 1011.6 |
| 20260830155045 | 90 | 112 | 4.0 | 7.0 | 0.00 | 0.00 | 0.00 | 61 | 1011.8 |
| 20260830154843 | 91 | 158 | 4.0 | 7.0 | 0.00 | 0.00 | 0.00 | 61 | 1011.7 |
| 20260830154644 | 91 | 158 | 4.0 | 6.0 | 0.00 | 0.00 | 0.00 | 60 | 1011.8 |
| 20260830154443 | 91 | 158 | 5.0 | 8.0 | 0.00 | 0.00 | 0.00 | 60 | 1011.6 |
| 20260830154243 | 91 | 135 | 4.0 | 6.0 | 0.00 | 0.00 | 0.00 | 59 | 1011.8 |
| 20260830154052 | 91 | 112 | 4.0 | 7.0 | 0.00 | 0.00 | 0.00 | 59 | 1011.9 |
| 20260830153843 | 91 | 158 | 3.0 | 4.0 | 0.00 | 0.00 | 0.00 | 59 | 1011.8 |
| 20260830153642 | 91 | 135 | 5.0 | 9.0 | 0.00 | 0.00 | 0.00 | 60 | 1011.9 |
| 20260830153443 | 91 | 135 | 4.0 | 6.0 | 0.00 | 0.00 | 0.00 | 59 | 1011.8 |
| 20260830153243 | 91 | 158 | 4.0 | 7.0 | 0.00 | 0.00 | 0.00 | 58 | 1011.7 |
| 20260830153049 | 91 | 112 | 5.0 | 8.0 | 0.00 | 0.00 | 0.00 | 58 | 1011.8 |
| 20260830152843 | 91 | 158 | 5.0 | 8.0 | 0.00 | 0.00 | 0.00 | 58 | 1011.8 |
| 20260830152641 | 91 | 112 | 4.0 | 7.0 | 0.00 | 0.00 | 0.00 | 57 | 1011.7 |
| 20260830152443 | 91 | 158 | 4.0 | 8.0 | 0.00 | 0.00 | 0.00 | 57 | 1011.8 |
| 20260830152242 | 91 | 202 | 4.0 | 7.0 | 0.00 | 0.00 | 0.00 | 56 | 1011.8 |
| 20260830152046 | 91 | 112 | 5.0 | 9.0 | 0.00 | 0.00 | 0.00 | 57 | 1011.8 |
| 20260830151842 | 91 | 90 | 7.0 | 11.0 | 0.00 | 0.00 | 0.00 | 58 | 1011.7 |
| 20260830151643 | 91 | 202 | 7.0 | 9.0 | 0.00 | 0.00 | 0.00 | 57 | 1012.0 |
| 20260830151443 | 91 | 135 | 4.0 | 8.0 | 0.00 | 0.00 | 0.00 | 56 | 1011.7 |